Year,Month,Day,Hour,Minute,Value (Times are PST for windspeed in km/hr)
2021,11,16,00,00,18.20
2021,11,16,00,01,19.60
2021,11,16,00,02,24.30
2021,11,16,00,03,19.70
2021,11,16,00,04,22.70
2021,11,16,00,05,23.50
2021,11,16,00,06,22.30
2021,11,16,00,07,20.70
2021,11,16,00,08,18.00
2021,11,16,00,09,15.90
2021,11,16,00,10,17.60
2021,11,16,00,11,15.90
2021,11,16,00,12,15.10
2021,11,16,00,13,16.30
2021,11,16,00,14,16.60
2021,11,16,00,15,19.50
2021,11,16,00,16,18.50
2021,11,16,00,17,17.90
2021,11,16,00,18,21.30
2021,11,16,00,19,19.10
2021,11,16,00,20,17.60
2021,11,16,00,21,17.70
2021,11,16,00,22,22.30
2021,11,16,00,23,17.80
2021,11,16,00,24,19.10
2021,11,16,00,25,16.30
2021,11,16,00,26,13.90
2021,11,16,00,27,19.40
2021,11,16,00,28,17.40
2021,11,16,00,29,20.40
2021,11,16,00,30,19.90
2021,11,16,00,31,21.60
2021,11,16,00,32,17.60
2021,11,16,00,33,14.90
2021,11,16,00,34,13.10
2021,11,16,00,35,14.90
2021,11,16,00,36,12.50
2021,11,16,00,37,11.60
2021,11,16,00,38,14.00
2021,11,16,00,39,16.00
2021,11,16,00,40,13.50
2021,11,16,00,41,17.90
2021,11,16,00,42,15.40
2021,11,16,00,43,14.00
2021,11,16,00,44,15.40
2021,11,16,00,45,14.30
2021,11,16,00,46,12.60
2021,11,16,00,47,12.30
2021,11,16,00,48,14.00
2021,11,16,00,49,14.60
2021,11,16,00,50,17.50
2021,11,16,00,51,14.70
2021,11,16,00,52,12.50
2021,11,16,00,53,14.20
2021,11,16,00,54,10.90
2021,11,16,00,55,13.20
2021,11,16,00,56,16.60
2021,11,16,00,57,17.10
2021,11,16,00,58,24.50
2021,11,16,00,59,19.70
2021,11,16,01,00,16.60
2021,11,16,01,01,21.00
2021,11,16,01,02,18.30
2021,11,16,01,03,17.90
2021,11,16,01,04,13.20
2021,11,16,01,05,16.00
2021,11,16,01,06,14.90
2021,11,16,01,07,14.70
2021,11,16,01,08,15.20
2021,11,16,01,09,13.00
2021,11,16,01,10,22.40
2021,11,16,01,11,13.80
2021,11,16,01,12,14.50
2021,11,16,01,13,14.30
2021,11,16,01,14,16.10
2021,11,16,01,15,17.40
2021,11,16,01,16,16.80
2021,11,16,01,17,16.50
2021,11,16,01,18,20.40
2021,11,16,01,19,18.50
2021,11,16,01,20,14.90
2021,11,16,01,21,15.70
2021,11,16,01,22,20.40
2021,11,16,01,23,17.00
2021,11,16,01,24,14.70
2021,11,16,01,25,23.00
2021,11,16,01,26,19.60
2021,11,16,01,27,21.50
2021,11,16,01,28,28.90
2021,11,16,01,29,20.80
2021,11,16,01,30,22.60
2021,11,16,01,31,18.30
2021,11,16,01,32,14.00
2021,11,16,01,33,17.90
2021,11,16,01,34,15.50
2021,11,16,01,35,18.20
2021,11,16,01,36,18.80
2021,11,16,01,37,21.00
2021,11,16,01,38,17.70
2021,11,16,01,39,24.70
2021,11,16,01,40,23.20
2021,11,16,01,41,16.20
2021,11,16,01,42,16.70
2021,11,16,01,43,26.00
2021,11,16,01,44,18.40
2021,11,16,01,45,21.20
2021,11,16,01,46,24.80
2021,11,16,01,47,17.40
2021,11,16,01,48,18.60
2021,11,16,01,49,19.20
2021,11,16,01,50,19.10
2021,11,16,01,51,21.20
2021,11,16,01,52,25.20
2021,11,16,01,53,19.60
2021,11,16,01,54,14.30
2021,11,16,01,55,19.10
2021,11,16,01,56,18.70
2021,11,16,01,57,27.10
2021,11,16,01,58,26.20
2021,11,16,01,59,26.20
2021,11,16,02,00,22.70
2021,11,16,02,01,19.50
2021,11,16,02,02,16.80
2021,11,16,02,03,21.40
2021,11,16,02,04,16.40
2021,11,16,02,05,18.70
2021,11,16,02,06,18.50
2021,11,16,02,07,15.40
2021,11,16,02,08,25.10
2021,11,16,02,09,19.60
2021,11,16,02,10,24.10
2021,11,16,02,11,24.10
2021,11,16,02,12,18.70
2021,11,16,02,13,25.90
2021,11,16,02,14,23.60
2021,11,16,02,15,21.60
2021,11,16,02,16,24.90
2021,11,16,02,17,28.80
2021,11,16,02,18,25.10
2021,11,16,02,19,33.40
2021,11,16,02,20,21.30
2021,11,16,02,21,27.10
2021,11,16,02,22,34.30
2021,11,16,02,23,24.30
2021,11,16,02,24,23.80
2021,11,16,02,25,23.00
2021,11,16,02,26,27.10
2021,11,16,02,27,27.10
2021,11,16,02,28,22.80
2021,11,16,02,29,26.20
2021,11,16,02,30,26.40
2021,11,16,02,31,23.60
2021,11,16,02,32,23.30
2021,11,16,02,33,24.40
2021,11,16,02,34,21.40
2021,11,16,02,35,30.20
2021,11,16,02,36,22.90
2021,11,16,02,37,20.60
2021,11,16,02,38,25.30
2021,11,16,02,39,22.90
2021,11,16,02,40,21.40
2021,11,16,02,41,22.80
2021,11,16,02,42,20.20
2021,11,16,02,43,24.40
2021,11,16,02,44,17.60
2021,11,16,02,45,18.10
2021,11,16,02,46,17.60
2021,11,16,02,47,22.00
2021,11,16,02,48,28.60
2021,11,16,02,49,24.10
2021,11,16,02,50,25.30
2021,11,16,02,51,17.20
2021,11,16,02,52,19.50
2021,11,16,02,53,18.60
2021,11,16,02,54,15.50
2021,11,16,02,55,19.30
2021,11,16,02,56,24.30
2021,11,16,02,57,29.20
2021,11,16,02,58,20.90
2021,11,16,02,59,20.50
2021,11,16,03,00,21.70
2021,11,16,03,01,16.20
2021,11,16,03,02,20.50
2021,11,16,03,03,20.60
2021,11,16,03,04,18.50
2021,11,16,03,05,22.80
2021,11,16,03,06,15.90
2021,11,16,03,07,18.00
2021,11,16,03,08,18.00
2021,11,16,03,09,21.50
2021,11,16,03,10,26.90
2021,11,16,03,11,24.40
2021,11,16,03,12,18.90
2021,11,16,03,13,15.90
2021,11,16,03,14,16.70
2021,11,16,03,15,22.50
2021,11,16,03,16,23.70
2021,11,16,03,17,18.90
2021,11,16,03,18,32.90
2021,11,16,03,19,22.30
2021,11,16,03,20,26.20
2021,11,16,03,21,21.80
2021,11,16,03,22,18.00
2021,11,16,03,23,19.20
2021,11,16,03,24,23.30
2021,11,16,03,25,20.90
2021,11,16,03,26,23.40
2021,11,16,03,27,23.10
2021,11,16,03,28,21.60
2021,11,16,03,29,20.50
2021,11,16,03,30,22.40
2021,11,16,03,31,26.60
2021,11,16,03,32,20.40
2021,11,16,03,33,20.80
2021,11,16,03,34,20.70
2021,11,16,03,35,20.70
2021,11,16,03,36,16.40
2021,11,16,03,37,16.00
2021,11,16,03,38,15.80
2021,11,16,03,39,13.00
2021,11,16,03,40,16.30
2021,11,16,03,41,26.50
2021,11,16,03,42,20.60
2021,11,16,03,43,16.80
2021,11,16,03,44,20.30
2021,11,16,03,45,20.10
2021,11,16,03,46,17.50
2021,11,16,03,47,19.80
2021,11,16,03,48,14.40
2021,11,16,03,49,16.90
2021,11,16,03,50,18.10
2021,11,16,03,51,20.30
2021,11,16,03,52,17.00
2021,11,16,03,53,19.70
2021,11,16,03,54,19.90
2021,11,16,03,55,16.90
2021,11,16,03,56,17.60
2021,11,16,03,57,23.20
2021,11,16,03,58,16.80
2021,11,16,03,59,14.50
2021,11,16,04,00,15.60
2021,11,16,04,01,16.90
2021,11,16,04,02,16.10
2021,11,16,04,03,21.70
2021,11,16,04,04,18.40
2021,11,16,04,05,21.20
2021,11,16,04,06,18.70
2021,11,16,04,07,16.50
2021,11,16,04,08,17.30
2021,11,16,04,09,21.90
2021,11,16,04,10,22.00
2021,11,16,04,11,16.60
2021,11,16,04,12,17.50
2021,11,16,04,13,15.70
2021,11,16,04,14,15.90
2021,11,16,04,15,17.20
2021,11,16,04,16,14.20
2021,11,16,04,17,15.90
2021,11,16,04,18,12.70
2021,11,16,04,19,14.20
2021,11,16,04,20,15.80
2021,11,16,04,21,12.90
2021,11,16,04,22,13.00
2021,11,16,04,23,14.20
2021,11,16,04,24,15.60
2021,11,16,04,25,15.60
2021,11,16,04,26,15.10
2021,11,16,04,27,13.00
2021,11,16,04,28,15.60
2021,11,16,04,29,18.00
2021,11,16,04,30,20.40
2021,11,16,04,31,15.60
2021,11,16,04,32,19.60
2021,11,16,04,33,16.80
2021,11,16,04,34,14.00
2021,11,16,04,35,12.30
2021,11,16,04,36,12.40
2021,11,16,04,37,13.70
2021,11,16,04,38,13.00
2021,11,16,04,39,12.50
2021,11,16,04,40,15.80
2021,11,16,04,41,15.70
2021,11,16,04,42,19.90
2021,11,16,04,43,19.70
2021,11,16,04,44,16.10
2021,11,16,04,45,16.40
2021,11,16,04,46,23.00
2021,11,16,04,47,20.80
2021,11,16,04,48,20.80
2021,11,16,04,49,21.40
2021,11,16,04,50,20.60
2021,11,16,04,51,20.40
2021,11,16,04,52,23.50
2021,11,16,04,53,20.50
2021,11,16,04,54,20.20
2021,11,16,04,55,23.50
2021,11,16,04,56,21.30
2021,11,16,04,57,20.90
2021,11,16,04,58,27.10
2021,11,16,04,59,19.70
2021,11,16,05,00,27.00
2021,11,16,05,01,21.20
2021,11,16,05,02,24.00
2021,11,16,05,03,19.70
2021,11,16,05,04,22.40
2021,11,16,05,05,18.90
2021,11,16,05,06,20.80
2021,11,16,05,07,26.00
2021,11,16,05,08,29.60
2021,11,16,05,09,23.80
2021,11,16,05,10,25.60
2021,11,16,05,11,22.70
2021,11,16,05,12,26.70
2021,11,16,05,13,25.10
2021,11,16,05,14,25.40
2021,11,16,05,15,29.20
2021,11,16,05,16,25.80
2021,11,16,05,17,26.60
2021,11,16,05,18,28.30
2021,11,16,05,19,23.00
2021,11,16,05,20,17.90
2021,11,16,05,21,19.40
2021,11,16,05,22,18.40
2021,11,16,05,23,21.00
2021,11,16,05,24,18.50
2021,11,16,05,25,25.50
2021,11,16,05,26,23.20
2021,11,16,05,27,17.90
2021,11,16,05,28,22.10
2021,11,16,05,29,19.70
2021,11,16,05,30,20.10
2021,11,16,05,31,18.10
2021,11,16,05,32,18.80
2021,11,16,05,33,21.50
2021,11,16,05,34,18.80
2021,11,16,05,35,18.50
2021,11,16,05,36,20.60
2021,11,16,05,37,16.70
2021,11,16,05,38,15.80
2021,11,16,05,39,16.80
2021,11,16,05,40,24.10
2021,11,16,05,41,20.80
2021,11,16,05,42,21.50
2021,11,16,05,43,25.00
2021,11,16,05,44,21.20
2021,11,16,05,45,15.10
2021,11,16,05,46,21.80
2021,11,16,05,47,21.70
2021,11,16,05,48,22.90
2021,11,16,05,49,23.80
2021,11,16,05,50,22.80
2021,11,16,05,51,22.10
2021,11,16,05,52,17.40
2021,11,16,05,53,15.70
2021,11,16,05,54,17.40
2021,11,16,05,55,12.00
2021,11,16,05,56,19.60
2021,11,16,05,57,20.20
2021,11,16,05,58,18.90
2021,11,16,05,59,19.50
2021,11,16,06,00,21.30
2021,11,16,06,01,22.10
2021,11,16,06,02,18.50
2021,11,16,06,03,22.80
2021,11,16,06,04,16.60
2021,11,16,06,05,21.20
2021,11,16,06,06,20.00
2021,11,16,06,07,17.10
2021,11,16,06,08,15.00
2021,11,16,06,09,19.30
2021,11,16,06,10,17.50
2021,11,16,06,11,25.30
2021,11,16,06,12,29.60
2021,11,16,06,13,25.50
2021,11,16,06,14,20.50
2021,11,16,06,15,23.10
2021,11,16,06,16,24.10
2021,11,16,06,17,30.30
2021,11,16,06,18,21.50
2021,11,16,06,19,19.80
2021,11,16,06,20,23.10
2021,11,16,06,21,20.30
2021,11,16,06,22,14.60
2021,11,16,06,23,16.30
2021,11,16,06,24,19.60
2021,11,16,06,25,16.60
2021,11,16,06,26,20.50
2021,11,16,06,27,14.00
2021,11,16,06,28,19.70
2021,11,16,06,29,18.20
2021,11,16,06,30,16.10
2021,11,16,06,31,24.20
2021,11,16,06,32,22.20
2021,11,16,06,33,16.90
2021,11,16,06,34,21.30
2021,11,16,06,35,15.60
2021,11,16,06,36,21.50
2021,11,16,06,37,17.80
2021,11,16,06,38,12.60
2021,11,16,06,39,12.90
2021,11,16,06,40,11.60
2021,11,16,06,41,9.80
2021,11,16,06,42,15.30
2021,11,16,06,43,16.40
2021,11,16,06,44,17.60
2021,11,16,06,45,15.60
2021,11,16,06,46,14.70
2021,11,16,06,47,17.30
2021,11,16,06,48,10.50
2021,11,16,06,49,7.60
2021,11,16,06,50,7.90
2021,11,16,06,51,8.50
2021,11,16,06,52,9.00
2021,11,16,06,53,7.50
2021,11,16,06,54,3.40
2021,11,16,06,55,8.00
2021,11,16,06,56,3.20
2021,11,16,06,57,3.20
2021,11,16,06,58,3.20
2021,11,16,06,59,3.20
2021,11,16,07,00,3.20
2021,11,16,07,01,3.20
2021,11,16,07,02,3.20
2021,11,16,07,03,3.20
2021,11,16,07,04,3.20
2021,11,16,07,05,3.20
2021,11,16,11,36,8.00
2021,11,16,11,37,9.70
2021,11,16,11,38,7.20
2021,11,16,11,39,7.60
2021,11,16,11,40,7.50
2021,11,16,11,41,7.10
2021,11,16,11,42,6.40
2021,11,16,11,43,8.70
2021,11,16,11,44,7.60
2021,11,16,11,45,7.00
2021,11,16,11,46,9.70
2021,11,16,11,47,8.90
2021,11,16,11,48,7.10
2021,11,16,11,49,8.20
2021,11,16,11,50,4.60
2021,11,16,11,51,2.90
2021,11,16,11,52,6.00
2021,11,16,11,53,2.40
2021,11,16,11,54,1.70
2021,11,16,11,55,0.70
2021,11,16,11,56,0.00
2021,11,16,11,57,1.80
2021,11,16,11,58,0.00
2021,11,16,11,59,1.60
2021,11,16,12,00,2.30
2021,11,16,12,01,1.20
2021,11,16,12,02,1.50
2021,11,16,12,03,0.30
2021,11,16,12,04,0.20
2021,11,16,12,05,0.00
2021,11,16,12,06,0.00
2021,11,16,12,07,0.20
2021,11,16,12,08,0.00
2021,11,16,12,09,0.20
2021,11,16,12,10,1.10
2021,11,16,12,11,0.60
2021,11,16,12,12,3.60
2021,11,16,12,13,3.30
2021,11,16,12,14,2.70
2021,11,16,12,15,0.20
2021,11,16,12,16,6.30
2021,11,16,12,17,1.90
2021,11,16,12,18,0.00
2021,11,16,12,19,0.30
2021,11,16,12,20,3.50
2021,11,16,12,21,2.40
2021,11,16,12,22,7.20
2021,11,16,12,23,9.70
2021,11,16,12,24,3.70
2021,11,16,12,25,8.10
2021,11,16,12,26,3.10
2021,11,16,12,27,5.50
2021,11,16,12,28,10.00
2021,11,16,12,29,8.20
2021,11,16,12,30,6.00
2021,11,16,12,31,8.20
2021,11,16,12,32,8.30
2021,11,16,12,33,13.90
2021,11,16,12,34,12.00
2021,11,16,12,35,6.10
2021,11,16,12,36,3.50
2021,11,16,12,37,5.60
2021,11,16,12,38,4.10
2021,11,16,12,39,5.90
2021,11,16,12,40,7.80
2021,11,16,12,41,6.00
2021,11,16,12,42,6.10
2021,11,16,12,43,5.90
2021,11,16,12,44,8.10
2021,11,16,12,45,9.10
2021,11,16,12,46,10.60
2021,11,16,12,47,9.60
2021,11,16,12,48,5.70
2021,11,16,12,49,9.00
2021,11,16,12,50,3.20
2021,11,16,12,51,1.50
2021,11,16,12,52,7.50
2021,11,16,12,53,5.20
2021,11,16,12,54,3.80
2021,11,16,12,55,7.30
2021,11,16,12,56,8.50
2021,11,16,12,57,5.30
2021,11,16,12,58,2.80
2021,11,16,12,59,6.00
2021,11,16,13,00,2.70
2021,11,16,13,01,2.10
2021,11,16,13,02,0.60
2021,11,16,13,03,4.90
2021,11,16,13,04,5.90
2021,11,16,13,05,8.30
2021,11,16,13,06,5.70
2021,11,16,13,07,2.00
2021,11,16,13,08,7.50
2021,11,16,13,09,10.60
2021,11,16,13,10,10.00
2021,11,16,13,11,4.80
2021,11,16,13,12,6.40
2021,11,16,13,13,5.50
2021,11,16,13,14,7.30
2021,11,16,13,15,9.10
2021,11,16,13,16,7.30
2021,11,16,13,17,7.10
2021,11,16,13,18,6.00
2021,11,16,13,19,8.50
2021,11,16,13,20,9.90
2021,11,16,13,21,8.00
2021,11,16,13,22,7.80
2021,11,16,13,23,3.80
2021,11,16,13,24,1.60
2021,11,16,13,25,4.70
2021,11,16,13,26,5.00
2021,11,16,13,27,4.90
2021,11,16,13,28,3.20
2021,11,16,13,29,1.20
2021,11,16,13,30,0.90
2021,11,16,13,31,2.50
2021,11,16,13,32,3.40
2021,11,16,13,33,1.00
2021,11,16,13,34,1.20
2021,11,16,13,35,0.70
2021,11,16,13,36,3.90
2021,11,16,13,37,6.30
2021,11,16,13,38,4.50
2021,11,16,13,39,4.60
2021,11,16,13,40,6.00
2021,11,16,13,41,8.60
2021,11,16,13,42,7.80
2021,11,16,13,43,9.30
2021,11,16,13,44,6.20
2021,11,16,13,45,4.70
2021,11,16,13,46,6.80
2021,11,16,13,47,6.10
2021,11,16,13,48,4.10
2021,11,16,13,49,2.70
2021,11,16,13,50,4.70
2021,11,16,13,51,4.20
2021,11,16,13,52,4.20
2021,11,16,13,53,4.70
2021,11,16,13,54,4.50
2021,11,16,13,55,1.40
2021,11,16,13,56,7.70
2021,11,16,13,57,8.30
2021,11,16,13,58,5.90
2021,11,16,13,59,6.20
2021,11,16,14,00,5.60
2021,11,16,14,01,5.30
2021,11,16,14,02,5.00
2021,11,16,14,03,7.50
2021,11,16,14,04,8.70
2021,11,16,14,05,6.60
2021,11,16,14,06,4.30
2021,11,16,14,07,6.80
2021,11,16,14,08,10.00
2021,11,16,14,09,5.60
2021,11,16,14,10,1.90
2021,11,16,14,11,5.10
2021,11,16,14,12,2.00
2021,11,16,14,13,5.80
2021,11,16,14,14,5.00
2021,11,16,14,15,5.70
2021,11,16,14,16,3.50
2021,11,16,14,17,2.50
2021,11,16,14,18,7.40
2021,11,16,14,19,5.60
2021,11,16,14,20,4.30
2021,11,16,14,21,5.10
2021,11,16,14,22,6.40
2021,11,16,14,23,5.10
2021,11,16,14,24,6.80
2021,11,16,14,25,4.20
2021,11,16,14,26,2.40
2021,11,16,14,27,4.50
2021,11,16,14,28,2.30
2021,11,16,14,29,4.50
2021,11,16,14,30,6.90
2021,11,16,14,31,3.60
2021,11,16,14,32,1.40
2021,11,16,14,33,3.90
2021,11,16,14,34,6.20
2021,11,16,14,35,6.60
2021,11,16,14,36,5.60
2021,11,16,14,37,6.10
2021,11,16,14,38,6.30
2021,11,16,14,39,4.30
2021,11,16,14,40,1.90
2021,11,16,14,41,4.50
2021,11,16,14,42,5.80
2021,11,16,14,43,1.40
2021,11,16,14,44,0.20
2021,11,16,14,45,3.20
2021,11,16,14,46,2.00
2021,11,16,14,47,6.60
2021,11,16,14,48,6.40
2021,11,16,14,49,2.80
2021,11,16,14,50,3.60
2021,11,16,14,51,4.90
2021,11,16,14,52,9.70
2021,11,16,14,53,6.60
2021,11,16,14,54,4.30
2021,11,16,14,55,7.80
2021,11,16,14,56,5.90
2021,11,16,14,57,2.50
2021,11,16,14,58,5.70
2021,11,16,14,59,3.80
2021,11,16,15,00,6.00
2021,11,16,15,01,5.00
2021,11,16,15,02,3.30
2021,11,16,15,03,4.10
2021,11,16,15,04,2.40
2021,11,16,15,05,2.50
2021,11,16,15,06,3.30
2021,11,16,15,07,3.10
2021,11,16,15,08,3.80
2021,11,16,15,09,5.00
2021,11,16,15,10,4.80
2021,11,16,15,11,8.00
2021,11,16,15,12,5.40
2021,11,16,15,13,2.80
2021,11,16,15,14,2.30
2021,11,16,15,15,1.50
2021,11,16,15,16,1.10
2021,11,16,15,17,2.00
2021,11,16,15,18,3.90
2021,11,16,15,19,2.70
2021,11,16,15,20,1.20
2021,11,16,15,21,2.60
2021,11,16,15,22,3.50
2021,11,16,15,23,3.90
2021,11,16,15,24,0.00
2021,11,16,15,25,1.90
2021,11,16,15,26,0.30
2021,11,16,15,27,1.80
2021,11,16,15,28,5.40
2021,11,16,15,29,0.80
2021,11,16,15,30,1.40
2021,11,16,15,31,5.40
2021,11,16,15,32,3.70
2021,11,16,15,33,1.50
2021,11,16,15,34,0.50
2021,11,16,15,35,2.80
2021,11,16,15,36,3.70
2021,11,16,15,37,0.50
2021,11,16,15,38,1.90
2021,11,16,15,39,2.60
2021,11,16,15,40,1.40
2021,11,16,15,41,2.80
2021,11,16,15,42,4.00
2021,11,16,15,43,1.60
2021,11,16,15,44,0.50
2021,11,16,15,45,1.50
2021,11,16,15,46,6.30
2021,11,16,15,47,1.50
2021,11,16,15,48,0.20
2021,11,16,15,49,1.70
2021,11,16,15,50,2.20
2021,11,16,15,51,4.40
2021,11,16,15,52,4.50
2021,11,16,15,53,5.30
2021,11,16,15,54,3.50
2021,11,16,15,55,5.70
2021,11,16,15,56,4.80
2021,11,16,15,57,0.30
2021,11,16,15,58,2.50
2021,11,16,15,59,2.50
2021,11,16,16,00,3.20
2021,11,16,16,01,1.10
2021,11,16,16,02,0.30
2021,11,16,16,03,1.80
2021,11,16,16,04,1.60
2021,11,16,16,05,1.10
2021,11,16,16,06,4.90
2021,11,16,16,07,0.50
2021,11,16,16,08,0.30
2021,11,16,16,09,0.00
2021,11,16,16,10,0.20
2021,11,16,16,11,3.10
2021,11,16,16,12,4.10
2021,11,16,16,13,4.90
2021,11,16,16,14,2.70
2021,11,16,16,15,0.20
2021,11,16,16,16,1.30
2021,11,16,16,17,0.20
2021,11,16,16,18,0.00
2021,11,16,16,19,0.30
2021,11,16,16,20,2.70
2021,11,16,16,21,5.10
2021,11,16,16,22,2.50
2021,11,16,16,23,0.80
2021,11,16,16,24,0.50
2021,11,16,16,25,0.60
2021,11,16,16,26,5.60
2021,11,16,16,27,4.50
2021,11,16,16,28,2.50
2021,11,16,16,29,2.40
2021,11,16,16,30,3.10
2021,11,16,16,31,2.60
2021,11,16,16,32,2.70
2021,11,16,16,33,1.80
2021,11,16,16,34,0.30
2021,11,16,16,35,3.50
2021,11,16,16,36,1.10
2021,11,16,16,37,0.20
2021,11,16,16,38,0.70
2021,11,16,16,39,0.70
2021,11,16,16,40,0.90
2021,11,16,16,41,1.10
2021,11,16,16,42,0.60
2021,11,16,16,43,0.40
2021,11,16,16,44,0.20
2021,11,16,16,45,0.20
2021,11,16,16,46,0.40
2021,11,16,16,47,0.00
2021,11,16,16,48,0.00
2021,11,16,16,49,0.00
2021,11,16,16,50,0.00
2021,11,16,16,51,0.00
2021,11,16,16,52,0.80
2021,11,16,16,53,0.00
2021,11,16,16,54,0.00
2021,11,16,16,55,0.00
2021,11,16,16,56,0.00
2021,11,16,16,57,0.00
2021,11,16,16,58,0.00
2021,11,16,16,59,0.00
2021,11,16,17,00,1.20
2021,11,16,17,01,0.00
2021,11,16,17,02,0.00
2021,11,16,17,03,0.20
2021,11,16,17,04,1.90
2021,11,16,17,05,0.50
2021,11,16,17,06,0.30
2021,11,16,17,07,0.10
2021,11,16,17,08,0.00
2021,11,16,17,09,0.00
2021,11,16,17,10,0.00
2021,11,16,17,11,0.20
2021,11,16,17,12,0.00
2021,11,16,17,13,0.40
2021,11,16,17,14,0.20
2021,11,16,17,15,0.00
2021,11,16,17,16,2.00
2021,11,16,17,17,1.40
2021,11,16,17,18,1.40
2021,11,16,17,19,1.00
2021,11,16,17,20,2.40
2021,11,16,17,21,2.30
2021,11,16,17,22,3.70
2021,11,16,17,23,1.80
2021,11,16,17,24,1.80
2021,11,16,17,25,0.20
2021,11,16,17,26,0.50
2021,11,16,17,27,2.80
2021,11,16,17,28,2.90
2021,11,16,17,29,1.80
2021,11,16,17,30,1.40
2021,11,16,17,31,2.80
2021,11,16,17,32,2.40
2021,11,16,17,33,0.00
2021,11,16,17,34,0.70
2021,11,16,17,35,1.80
2021,11,16,17,36,0.20
2021,11,16,17,37,0.20
2021,11,16,17,38,0.00
2021,11,16,17,39,1.70
2021,11,16,17,40,0.00
2021,11,16,17,41,0.20
2021,11,16,17,42,0.60
2021,11,16,17,43,0.00
2021,11,16,17,44,0.20
2021,11,16,17,45,0.30
2021,11,16,17,46,0.00
2021,11,16,17,47,0.00
2021,11,16,17,48,0.50
2021,11,16,17,49,0.30
2021,11,16,17,50,0.00
2021,11,16,17,51,0.20
2021,11,16,17,52,0.60
2021,11,16,17,53,0.00
2021,11,16,17,54,0.00
2021,11,16,17,55,0.00
2021,11,16,17,56,0.00
2021,11,16,17,57,0.00
2021,11,16,17,58,0.80
2021,11,16,17,59,0.20
2021,11,16,18,00,0.00
2021,11,16,18,01,1.10
2021,11,16,18,02,0.60
2021,11,16,18,03,0.20
2021,11,16,18,04,1.50
2021,11,16,18,05,0.00
2021,11,16,18,06,0.30
2021,11,16,18,07,0.00
2021,11,16,18,08,0.00
2021,11,16,18,09,0.20
2021,11,16,18,10,0.10
2021,11,16,18,11,0.90
2021,11,16,18,12,0.20
2021,11,16,18,13,0.30
2021,11,16,18,14,0.00
2021,11,16,18,15,0.10
2021,11,16,18,16,0.10
2021,11,16,18,17,0.10
2021,11,16,18,18,0.00
2021,11,16,18,19,0.80
2021,11,16,18,20,0.20
2021,11,16,18,21,0.20
2021,11,16,18,22,0.00
2021,11,16,18,23,0.80
2021,11,16,18,24,0.10
2021,11,16,18,25,0.70
2021,11,16,18,26,0.40
2021,11,16,18,27,0.10
2021,11,16,18,28,0.50
2021,11,16,18,29,0.10
2021,11,16,18,30,0.30
2021,11,16,18,31,0.00
2021,11,16,18,32,0.50
2021,11,16,18,33,1.00
2021,11,16,18,34,1.00
2021,11,16,18,35,0.00
2021,11,16,18,36,0.00
2021,11,16,18,37,0.20
2021,11,16,18,38,0.30
2021,11,16,18,39,1.60
2021,11,16,18,40,0.10
2021,11,16,18,41,0.10
2021,11,16,18,42,1.00
2021,11,16,18,43,2.40
2021,11,16,18,44,0.10
2021,11,16,18,45,1.30
2021,11,16,18,46,1.80
2021,11,16,18,47,1.30
2021,11,16,18,48,0.50
2021,11,16,18,49,1.30
2021,11,16,18,50,1.60
2021,11,16,18,51,3.10
2021,11,16,18,52,2.20
2021,11,16,18,53,1.90
2021,11,16,18,54,0.90
2021,11,16,18,55,1.90
2021,11,16,18,56,2.50
2021,11,16,18,57,0.30
2021,11,16,18,58,0.20
2021,11,16,18,59,1.30
2021,11,16,19,00,2.40
2021,11,16,19,01,2.70
2021,11,16,19,02,1.00
2021,11,16,19,03,0.90
2021,11,16,19,04,1.40
2021,11,16,19,05,0.00
2021,11,16,19,06,0.20
2021,11,16,19,07,2.20
2021,11,16,19,08,0.00
2021,11,16,19,09,0.00
2021,11,16,19,10,0.00
2021,11,16,19,11,0.80
2021,11,16,19,12,0.30
2021,11,16,19,13,0.20
2021,11,16,19,14,0.00
2021,11,16,19,15,0.00
2021,11,16,19,16,0.00
2021,11,16,19,17,0.10
2021,11,16,19,18,0.00
2021,11,16,19,19,0.00
2021,11,16,19,20,0.10
2021,11,16,19,21,0.00
2021,11,16,19,22,0.20
2021,11,16,19,23,0.20
2021,11,16,19,24,0.00
2021,11,16,19,25,0.00
2021,11,16,19,26,0.00
2021,11,16,19,27,0.00
2021,11,16,19,28,0.00
2021,11,16,19,29,0.00
2021,11,16,19,30,0.70
2021,11,16,19,31,0.20
2021,11,16,19,32,0.00
2021,11,16,19,33,0.00
2021,11,16,19,34,0.00
2021,11,16,19,35,0.00
2021,11,16,19,36,0.20
2021,11,16,19,37,0.00
2021,11,16,19,38,0.00
2021,11,16,19,39,0.00
2021,11,16,19,40,0.00
2021,11,16,19,41,0.10
2021,11,16,19,42,0.00
2021,11,16,19,43,0.00
2021,11,16,19,44,0.00
2021,11,16,19,45,0.20
2021,11,16,19,46,0.20
2021,11,16,19,47,0.00
2021,11,16,19,48,0.00
2021,11,16,19,49,0.00
2021,11,16,19,50,0.00
2021,11,16,19,51,0.00
2021,11,16,19,52,0.00
2021,11,16,19,53,0.00
2021,11,16,19,54,0.00
2021,11,16,19,55,0.00
2021,11,16,19,56,0.00
2021,11,16,19,57,0.00
2021,11,16,19,58,0.00
2021,11,16,19,59,0.00
2021,11,16,20,00,0.00
2021,11,16,20,01,0.00
2021,11,16,20,02,0.00
2021,11,16,20,03,0.00
2021,11,16,20,04,0.00
2021,11,16,20,05,0.20
2021,11,16,20,06,0.00
2021,11,16,20,07,0.00
2021,11,16,20,08,0.00
2021,11,16,20,09,0.50
2021,11,16,20,10,0.00
2021,11,16,20,11,0.00
2021,11,16,20,12,0.50
2021,11,16,20,13,1.00
2021,11,16,20,14,0.00
2021,11,16,20,15,0.20
2021,11,16,20,16,0.00
2021,11,16,20,17,0.40
2021,11,16,20,18,0.00
2021,11,16,20,19,0.10
2021,11,16,20,20,0.00
2021,11,16,20,21,0.00
2021,11,16,20,22,1.00
2021,11,16,20,23,0.00
2021,11,16,20,24,0.40
2021,11,16,20,25,0.00
2021,11,16,20,26,0.00
2021,11,16,20,27,0.40
2021,11,16,20,28,0.00
2021,11,16,20,29,0.00
2021,11,16,20,30,0.00
2021,11,16,20,31,0.50
2021,11,16,20,32,0.20
2021,11,16,20,33,0.00
2021,11,16,20,34,0.00
2021,11,16,20,35,0.30
2021,11,16,20,36,0.00
2021,11,16,20,37,0.00
2021,11,16,20,38,0.00
2021,11,16,20,39,0.00
2021,11,16,20,40,0.40
2021,11,16,20,41,0.00
2021,11,16,20,42,0.30
2021,11,16,20,43,1.00
2021,11,16,20,44,0.10
2021,11,16,20,45,0.00
2021,11,16,20,46,0.20
2021,11,16,20,47,0.20
2021,11,16,20,48,0.50
2021,11,16,20,49,3.60
2021,11,16,20,50,0.30
2021,11,16,20,51,1.60
2021,11,16,20,52,0.00
2021,11,16,20,53,0.60
2021,11,16,20,54,1.00
2021,11,16,20,55,0.80
2021,11,16,20,56,0.80
2021,11,16,20,57,2.10
2021,11,16,20,58,1.20
2021,11,16,20,59,0.60
2021,11,16,21,00,1.20
2021,11,16,21,01,0.90
2021,11,16,21,02,0.50
2021,11,16,21,03,2.40
2021,11,16,21,04,2.20
2021,11,16,21,05,1.90
2021,11,16,21,06,2.50
2021,11,16,21,07,0.90
2021,11,16,21,08,1.60
2021,11,16,21,09,0.30
2021,11,16,21,10,1.70
2021,11,16,21,11,1.10
2021,11,16,21,12,2.30
2021,11,16,21,13,4.80
2021,11,16,21,14,3.30
2021,11,16,21,15,1.10
2021,11,16,21,16,1.00
2021,11,16,21,17,1.90
2021,11,16,21,18,2.20
2021,11,16,21,19,0.90
2021,11,16,21,20,1.60
2021,11,16,21,21,1.40
2021,11,16,21,22,0.00
2021,11,16,21,23,0.50
2021,11,16,21,24,1.40
2021,11,16,21,25,0.60
2021,11,16,21,26,0.80
2021,11,16,21,27,2.40
2021,11,16,21,28,0.90
2021,11,16,21,29,0.50
2021,11,16,21,30,0.30
2021,11,16,21,31,1.30
2021,11,16,21,32,0.60
2021,11,16,21,33,1.30
2021,11,16,21,34,1.10
2021,11,16,21,35,1.40
2021,11,16,21,36,0.90
2021,11,16,21,37,1.50
2021,11,16,21,38,1.50
2021,11,16,21,39,0.20
2021,11,16,21,40,0.20
2021,11,16,21,41,0.60
2021,11,16,21,42,1.60
2021,11,16,21,43,0.20
2021,11,16,21,44,0.60
2021,11,16,21,45,0.40
2021,11,16,21,46,0.10
2021,11,16,21,47,0.00
2021,11,16,21,48,0.10
2021,11,16,21,49,0.00
2021,11,16,21,50,0.20
2021,11,16,21,51,0.20
2021,11,16,21,52,0.60
2021,11,16,21,53,0.20
2021,11,16,21,54,1.80
2021,11,16,21,55,0.10
2021,11,16,21,56,1.10
2021,11,16,21,57,0.30
2021,11,16,21,58,0.20
2021,11,16,21,59,1.20
2021,11,16,22,00,0.50
2021,11,16,22,01,2.50
2021,11,16,22,02,1.40
2021,11,16,22,03,1.00
2021,11,16,22,04,1.30
2021,11,16,22,05,0.10
2021,11,16,22,06,0.00
2021,11,16,22,07,0.10
2021,11,16,22,08,0.20
2021,11,16,22,09,0.20
2021,11,16,22,10,1.50
2021,11,16,22,11,1.30
2021,11,16,22,12,2.20
2021,11,16,22,13,0.50
2021,11,16,22,14,3.20
2021,11,16,22,15,1.50
2021,11,16,22,16,0.70
2021,11,16,22,17,2.60